When you browse on this site, cookies collect data to enhance your experience and personalize the content and advertising you see.
Visit our Privacy Policy to learn more. By continuing to use the site, you agree to this use of cookies and data.
  • In Österreich
  • Länderverzeichnis
  • Für 7 Tage
  • Wassertemperatur
  • Satellitenkarten
  • Wetterkarte
  • News
  • Widgets
  • user-avatar
    Anmelden

    Stündliche Wetter Gadow

    Heute, 19 Dezember, Mittwoch

    Zeit Temperatur Niederschläge Wind Luftdruck Luftfeuchtigkeit
    00:00 -1°C° 0 mm 3 m/S 759 mmHg 91%
    01:00 -2°C° 0 mm 3 m/S 759 mmHg 90%
    02:00 -2°C° 0 mm 3 m/S 759 mmHg 89%
    03:00 -3°C° 0 mm 4 m/S 759 mmHg 88%
    04:00 -3°C° 0 mm 4 m/S 759 mmHg 87%
    05:00 -3°C° 0 mm 4 m/S 758 mmHg 87%
    06:00 -3°C° 0 mm 4 m/S 758 mmHg 87%
    07:00 -4°C° 0 mm 4 m/S 758 mmHg 88%
    08:00 -4°C° 0 mm 5 m/S 758 mmHg 86%
    09:00 -4°C° 0 mm 5 m/S 758 mmHg 83%
    10:00 -4°C° 0 mm 6 m/S 757 mmHg 81%
    11:00 -3°C° 0 mm 6 m/S 757 mmHg 79%
    12:00 -3°C° 0 mm 6 m/S 757 mmHg 77%
    13:00 -2°C° 0 mm 5 m/S 756 mmHg 75%
    14:00 -2°C° 0 mm 5 m/S 756 mmHg 76%
    15:00 -2°C° 0 mm 5 m/S 756 mmHg 77%
    16:00 -4°C° 0 mm 5 m/S 755 mmHg 79%
    17:00 -4°C° 0 mm 5 m/S 755 mmHg 79%
    18:00 -4°C° 0 mm 5 m/S 755 mmHg 79%
    19:00 -4°C° 0 mm 5 m/S 755 mmHg 80%
    20:00 -4°C° 0 mm 5 m/S 755 mmHg 80%
    21:00 -4°C° 0 mm 5 m/S 754 mmHg 79%
    22:00 -4°C° 0 mm 5 m/S 754 mmHg 79%
    23:00 -3°C° 0 mm 4 m/S 754 mmHg 79%

    Morgen, 20 Dezember, Donnerstag

    Zeit Temperatur Niederschläge Wind Luftdruck Luftfeuchtigkeit
    00:00 -3°C° 0 mm 4 m/S 754 mmHg 79%
    01:00 -2°C° 0 mm 4 m/S 754 mmHg 79%
    02:00 -2°C° 0 mm 4 m/S 754 mmHg 79%
    03:00 -1°C° 0 mm 3 m/S 753 mmHg 79%
    04:00 -1°C° 0 mm 3 m/S 753 mmHg 79%
    05:00 -1°C° 0 mm 3 m/S 753 mmHg 79%
    06:00 -1°C° 0 mm 3 m/S 753 mmHg 79%
    07:00 -1°C° 0 mm 3 m/S 753 mmHg 79%
    08:00 -1°C° 0 mm 3 m/S 753 mmHg 78%
    09:00 -1°C° 0 mm 3 m/S 753 mmHg 77%
    10:00 -2°C° 0 mm 4 m/S 753 mmHg 75%
    11:00 -1°C° 0 mm 3 m/S 753 mmHg 76%
    12:00 -1°C° 0 mm 3 m/S 753 mmHg 76%
    13:00 -1°C° 0 mm 3 m/S 752 mmHg 76%
    14:00 -1°C° 0 mm 3 m/S 752 mmHg 79%
    15:00 -1°C° 0 mm 3 m/S 752 mmHg 81%
    16:00 -1°C° 0 mm 3 m/S 752 mmHg 84%
    17:00 -1°C° 0.1 mm 3 m/S 752 mmHg 86%
    18:00 -1°C° 0.1 mm 3 m/S 752 mmHg 88%
    19:00 -1°C° 0.1 mm 3 m/S 752 mmHg 90%
    20:00 -1°C° 0.1 mm 3 m/S 752 mmHg 91%
    21:00 0°C° 0.1 mm 3 m/S 752 mmHg 91%
    22:00 0°C° 0.1 mm 3 m/S 752 mmHg 92%
    23:00 -1°C° 0 mm 4 m/S 752 mmHg 92%

    übermorgen, 21 Dezember, Freitag

    Zeit Temperatur Niederschläge Wind Luftdruck Luftfeuchtigkeit
    00:00 -1°C° 0 mm 4 m/S 752 mmHg 92%
    01:00 -1°C° 0 mm 4 m/S 752 mmHg 92%
    02:00 -1°C° 0 mm 4 m/S 752 mmHg 92%
    03:00 -1°C° 0 mm 4 m/S 752 mmHg 92%
    04:00 -1°C° 0 mm 4 m/S 751 mmHg 91%
    05:00 -1°C° 0 mm 4 m/S 751 mmHg 92%
    06:00 -1°C° 0 mm 4 m/S 751 mmHg 92%
    07:00 -1°C° 0 mm 4 m/S 751 mmHg 92%
    08:00 0°C° 0 mm 4 m/S 750 mmHg 91%
    09:00 0°C° 0 mm 4 m/S 750 mmHg 91%
    10:00 0°C° 0 mm 5 m/S 750 mmHg 91%
    11:00 0°C° 0 mm 5 m/S 749 mmHg 90%
    12:00 0°C° 0 mm 4 m/S 749 mmHg 90%
    13:00 +1°C° 0 mm 4 m/S 748 mmHg 89%
    14:00 0°C° 0.1 mm 4 m/S 747 mmHg 90%
    15:00 0°C° 0.1 mm 4 m/S 747 mmHg 90%
    16:00 0°C° 0.1 mm 4 m/S 746 mmHg 90%
    17:00 0°C° 0.3 mm 5 m/S 745 mmHg 90%
    18:00 0°C° 0.3 mm 5 m/S 745 mmHg 90%
    19:00 0°C° 0.3 mm 5 m/S 744 mmHg 90%
    20:00 0°C° 0.7 mm 5 m/S 743 mmHg 90%
    21:00 +1°C° 0.7 mm 5 m/S 742 mmHg 91%
    22:00 +1°C° 0.7 mm 5 m/S 741 mmHg 92%
    23:00 +2°C° 1 mm 6 m/S 741 mmHg 91%

    22 Dezember, Samstag

    Zeit Temperatur Niederschläge Wind Luftdruck Luftfeuchtigkeit
    00:00 +3°C° 1 mm 6 m/S 740 mmHg 90%
    01:00 +4°C° 1 mm 7 m/S 740 mmHg 90%
    02:00 +3°C° 0 mm 7 m/S 740 mmHg 87%
    03:00 +3°C° 0 mm 7 m/S 739 mmHg 85%
    04:00 +2°C° 0 mm 8 m/S 739 mmHg 82%
    05:00 +3°C° 0 mm 7 m/S 740 mmHg 83%
    06:00 +3°C° 0 mm 7 m/S 740 mmHg 84%
    07:00 +2°C° 0 mm 6 m/S 740 mmHg 85%
    08:00 +3°C° 0 mm 6 m/S 741 mmHg 85%
    09:00 +3°C° 0 mm 7 m/S 741 mmHg 85%
    10:00 +3°C° 0 mm 7 m/S 741 mmHg 85%
    11:00 +4°C° 0 mm 7 m/S 741 mmHg 85%
    12:00 +4°C° 0 mm 7 m/S 741 mmHg 85%
    13:00 +4°C° 0 mm 7 m/S 741 mmHg 85%
    14:00 +4°C° 0.7 mm 6 m/S 740 mmHg 87%
    15:00 +4°C° 0.7 mm 6 m/S 740 mmHg 89%
    16:00 +5°C° 0.7 mm 5 m/S 740 mmHg 92%
    17:00 +4°C° 0.2 mm 6 m/S 740 mmHg 90%
    18:00 +4°C° 0.2 mm 6 m/S 741 mmHg 88%
    19:00 +4°C° 0.2 mm 7 m/S 741 mmHg 86%
    20:00 +4°C° 0.2 mm 8 m/S 742 mmHg 84%
    21:00 +3°C° 0.2 mm 9 m/S 742 mmHg 82%
    22:00 +2°C° 0.2 mm 10 m/S 743 mmHg 80%
    23:00 +2°C° 0.1 mm 10 m/S 744 mmHg 81%

    23 Dezember, Sonntag

    Zeit Temperatur Niederschläge Wind Luftdruck Luftfeuchtigkeit
    00:00 +1°C° 0.1 mm 9 m/S 745 mmHg 81%
    01:00 +1°C° 0.1 mm 9 m/S 746 mmHg 81%
    02:00 0°C° 0 mm 8 m/S 747 mmHg 84%
    03:00 0°C° 0 mm 7 m/S 748 mmHg 86%
    04:00 +1°C° 0 mm 5 m/S 749 mmHg 89%
    05:00 0°C° 0 mm 5 m/S 750 mmHg 91%
    06:00 0°C° 0 mm 4 m/S 750 mmHg 92%
    07:00 +1°C° 0 mm 3 m/S 751 mmHg 94%
    08:00 +1°C° 0 mm 3 m/S 751 mmHg 93%
    09:00 +2°C° 0 mm 2 m/S 751 mmHg 93%
    10:00 +2°C° 0 mm 2 m/S 752 mmHg 92%
    11:00 +3°C° 0 mm 2 m/S 752 mmHg 90%
    12:00 +3°C° 0 mm 2 m/S 752 mmHg 87%
    13:00 +4°C° 0 mm 2 m/S 752 mmHg 85%
    14:00 +3°C° 0.1 mm 2 m/S 752 mmHg 88%
    15:00 +3°C° 0.1 mm 2 m/S 752 mmHg 90%
    16:00 +3°C° 0.1 mm 2 m/S 752 mmHg 92%
    17:00 +2°C° 0.2 mm 3 m/S 752 mmHg 91%
    18:00 +1°C° 0.2 mm 4 m/S 752 mmHg 90%
    19:00 +2°C° 0.2 mm 5 m/S 752 mmHg 89%
    20:00 +2°C° 0 mm 5 m/S 752 mmHg 89%
    21:00 +2°C° 0 mm 5 m/S 752 mmHg 89%
    22:00 +2°C° 0 mm 5 m/S 752 mmHg 88%
    23:00 +2°C° 0.1 mm 5 m/S 752 mmHg 88%

    24 Dezember, Montag

    Zeit Temperatur Niederschläge Wind Luftdruck Luftfeuchtigkeit
    00:00 +2°C° 0.1 mm 5 m/S 752 mmHg 87%
    01:00 +2°C° 0.1 mm 5 m/S 752 mmHg 87%
    02:00 +2°C° 0.2 mm 5 m/S 751 mmHg 87%
    03:00 +2°C° 0.2 mm 6 m/S 751 mmHg 88%
    04:00 +2°C° 0.2 mm 6 m/S 751 mmHg 88%
    05:00 +2°C° 0.4 mm 6 m/S 751 mmHg 87%
    06:00 +2°C° 0.4 mm 6 m/S 751 mmHg 85%
    07:00 +2°C° 0.4 mm 7 m/S 751 mmHg 84%
    08:00 +2°C° 0.1 mm 7 m/S 752 mmHg 82%
    09:00 +1°C° 0.1 mm 8 m/S 753 mmHg 81%
    10:00 +1°C° 0.1 mm 8 m/S 753 mmHg 80%
    11:00 +2°C° 0 mm 7 m/S 754 mmHg 79%
    12:00 +2°C° 0 mm 7 m/S 755 mmHg 77%
    13:00 +2°C° 0 mm 6 m/S 755 mmHg 76%
    14:00 +1°C° 0 mm 5 m/S 756 mmHg 78%
    15:00 +1°C° 0 mm 4 m/S 756 mmHg 80%
    16:00 +2°C° 0 mm 3 m/S 757 mmHg 82%
    17:00 +1°C° 0.1 mm 4 m/S 757 mmHg 83%
    18:00 +1°C° 0.1 mm 4 m/S 758 mmHg 85%
    19:00 +1°C° 0.1 mm 4 m/S 758 mmHg 86%
    20:00 +1°C° 0.1 mm 4 m/S 758 mmHg 86%
    21:00 +1°C° 0.1 mm 4 m/S 758 mmHg 86%
    22:00 0°C° 0.1 mm 4 m/S 759 mmHg 86%
    23:00 0°C° 0 mm 4 m/S 759 mmHg 86%
    Mehr zeigen